Wetbulb
70.42 72.33 72.70 73.06 73.61 73.55 74.26 74.22 73.86 73.94 74.33 74.69 74.57 74.59 74.44 74.57 74.24 73.97 73.88 74.03 73.85 73.30 73.31 73.39 73.20 73.14 73.12 73.10 73.08 73.05 72.96 72.97 72.68 72.82 72.78 72.63 71.90 71.62 71.81 71.33 72.53 71.09 71.57
71.81 72.62 71.96 72.83 73.41 73.62 74.02 74.08 73.85 74.24 74.56 74.66 74.44 74.46 74.45 74.41 73.94 73.69 73.76 73.84 73.85 73.25 72.99 73.02 72.87 72.80 72.68 72.63 72.78 72.91 72.67 72.59 72.51 72.86 72.65 72.36 71.81 71.64 72.23 72.52 71.85 71.49 72.08
72.07 73.27 72.64 72.21 73.10 73.51 74.00 74.19 74.39 74.66 74.69 74.64 74.56 74.55 74.35 74.06 73.86 73.61 73.57 73.49 73.67 73.10 73.04 72.65 72.55 72.41 72.53 72.31 72.54 72.48 72.30 72.05 72.18 72.63 72.83 70.58 70.73 71.34 71.64 71.98 71.85 71.10 71.15
72.99 74.10 72.00 72.11 72.91 73.20 73.72 73.95 74.33 74.74 74.74 74.49 74.48 74.30 74.18 73.96 73.69 73.52 73.29 73.28 73.28 72.85 72.82 72.57 72.10 71.89 72.00 71.99 72.07 71.82 71.32 70.84 70.93 71.74 71.55 71.09 70.18 71.47 71.00 71.08 70.86 70.76 70.61
72.92 74.56 73.44 71.81 72.37 72.87 73.20 73.62 74.01 74.11 73.97 73.99 73.94 74.08 73.96 73.75 73.19 73.01 73.19 73.28 73.25 72.17 72.44 72.67 72.01 71.44 71.42 71.40 71.21 71.13 70.28 69.92 70.95 71.16 71.60 71.60 70.79 71.25 71.37 71.32 70.44 70.44 70.41
72.56 74.22 71.15 71.38 71.94 72.41 72.84 73.31 73.60 73.24 72.81 72.89 73.30 73.68 73.79 73.55 73.16 73.10 73.05 73.40 72.88 72.12 71.51 71.69 71.47 70.59 70.33 69.94 69.41 68.99 68.24 68.50 68.76 71.31 71.18 71.11 71.19 71.35 71.34 71.32 71.28 70.40 70.35
72.33 75.41 74.17 70.88 71.75 72.44 72.69 72.90 72.91 72.40 72.13 72.62 72.83 73.02 73.23 73.51 73.48 73.04 73.11 73.64 73.42 72.88 71.59 70.41 69.70 69.18 69.17 68.97 68.60 68.05 68.05 68.95 69.65 70.46 70.60 71.23 72.04 71.94 71.17 70.93 70.85 70.69 70.00
72.23 74.46 74.77 71.92 71.90 71.94 71.94 72.05 71.54 71.48 71.93 72.13 72.34 72.63 73.11 73.16 72.69 72.64 73.06 73.31 73.08 72.31 71.59 70.83 70.20 69.67 69.12 68.93 68.45 68.11 68.50 69.23 70.61 70.41 71.40 70.99 71.15 72.34 71.41 70.98 71.19 71.05 70.48
73.11 74.25 74.48 73.45 72.69 71.25 70.74 70.56 70.42 70.77 71.30 71.62 71.75 72.06 72.58 72.14 71.93 72.52 72.88 72.94 72.94 72.26 71.41 70.88 70.49 70.13 69.48 69.21 69.07 69.08 69.57 69.99 70.10 70.73 70.63 71.92 71.81 72.41 71.73 71.05 70.83 71.43 70.84
72.64 74.07 74.24 74.30 73.39 73.29 73.19 70.17 70.09 70.50 70.60 71.00 71.33 71.30 71.26 71.41 71.61 72.25 72.10 72.13 72.21 71.89 71.39 70.85 70.37 70.36 70.22 70.26 70.06 70.19 69.76 69.41 69.83 69.98 69.96 71.41 71.28 72.11 71.98 71.22 70.51 70.46 71.15
70.76 72.57 74.51 74.52 73.99 73.79 73.41 72.57 70.65 70.86 70.84 70.65 71.38 71.12 70.11 72.22 72.60 72.61 71.66 70.69 71.45 70.97 70.92 71.14 70.80 70.35 70.08 70.02 69.87 69.99 69.32 70.53 69.88 70.91 69.13 69.61 71.54 71.84 71.70 71.80 70.87 70.88 70.73
69.03 70.47 72.20 73.40 73.66 74.02 72.60 73.87 73.28 73.08 72.53 72.30 72.00 72.39 72.32 72.74 73.21 71.52 71.02 70.46 70.83 70.48 70.47 70.29 69.86 69.34 69.00 70.33 70.26 69.11 70.11 69.81 71.32 71.24 70.45 69.78 71.06 71.56 71.03 70.72 70.33 69.90 69.37
70.67 70.08 71.21 72.59 73.31 72.97 71.68 72.91 72.34 72.68 72.81 73.03 73.16 73.13 72.76 73.56 73.03 72.68 73.17 71.34 71.75 69.98 70.91 69.58 70.03 70.09 70.76 70.19 69.58 71.41 71.33 71.26 71.34 71.31 69.11 68.80 70.36 71.13 70.77 69.95 68.98 68.51 68.13
71.01 70.59 71.15 72.27 73.03 73.43 72.33 72.38 72.23 71.94 72.04 72.59 72.76 73.56 73.45 72.96 71.86 71.70 73.08 71.79 71.66 70.11 70.94 71.20 70.80 70.86 70.48 69.55 70.51 70.01 70.47 70.90 71.51 71.56 68.76 66.18 68.73 69.82 70.16 69.77 68.62 67.72 66.87
70.12 71.22 71.33 71.99 72.25 72.30 72.56 72.34 72.37 71.93 72.09 72.60 73.18 72.39 71.70 72.67 71.77 71.54 71.22 70.82 70.69 70.76 69.43 69.03 68.58 68.39 68.92 68.68 69.50 69.34 68.27 68.63 68.67 68.22 67.20 64.13 66.56 67.93 68.71 68.85 67.93 66.83 65.38
70.00 71.16 71.78 71.56 71.75 71.69 71.73 72.09 71.95 72.03 72.48 71.37 70.57 67.88 69.83 70.94 70.18 69.73 68.24 67.92 68.31 67.86 68.22 67.91 68.28 67.47 67.88 68.57 67.82 67.93 66.92 65.37 64.66 64.04 63.48 62.74 62.96 64.55 66.14 66.58 66.19 64.94 64.02
69.76 71.65 71.72 72.05 71.66 71.47 70.95 70.72 70.94 70.97 68.80 64.10 62.16 61.28 62.77 64.13 64.81 64.18 63.13 64.63 65.76 66.56 67.06 67.38 67.43 67.16 66.99 67.41 65.67 62.96 62.30 62.29 62.02 60.34 60.18 60.38 59.46 59.90 61.74 62.93 62.43 62.09 61.68
69.16 71.02 72.59 71.51 71.65 70.78 69.09 69.39 68.56 65.73 61.63 60.24 60.29 60.72 60.96 61.56 62.78 64.06 63.15 64.45 65.51 66.31 66.05 66.19 65.97 65.16 65.20 65.26 62.23 59.99 59.94 59.11 58.47 58.77 58.58 57.94 57.53 56.49 56.56 58.51 59.79 59.79 59.70
66.66 71.57 72.11 71.11 70.27 69.48 68.22 61.96 60.98 60.42 61.64 62.13 61.90 60.80 60.39 61.59 62.30 62.93 63.00 63.41 64.32 64.27 64.80 63.86 64.73 65.36 63.57 62.29 59.62 56.16 56.46 56.09 56.61 56.26 56.31 57.01 56.54 54.50 53.59 54.55 54.75 56.52 57.52
65.69 72.76 71.13 69.09 67.87 61.89 59.55 58.88 58.80 58.88 60.04 61.89 63.49 60.96 59.39 60.91 61.35 62.02 61.82 61.17 62.01 62.09 62.94 62.69 62.66 63.08 62.94 61.15 57.11 51.81 50.94 52.41 53.23 53.85 54.22 55.81 56.13 55.92 56.03 55.94 55.45 53.49 54.40
71.07 70.38 68.53 64.88 61.17 59.86 58.91 58.73 58.48 58.02 60.89 62.09 61.67 58.94 59.65 59.40 60.28 60.38 60.40 59.58 60.55 60.58 60.84 61.75 62.77 60.80 61.15 59.16 55.50 50.62 48.62 48.35 48.04 49.14 51.90 52.61 55.85 55.99 56.68 56.58 54.57 53.24 52.71
65.38 62.75 62.17 60.74 60.77 61.04 60.87 61.49 61.93 61.26 62.09 60.97 59.28 56.73 55.24 57.52 59.13 58.62 59.00 58.31 58.73 58.18 59.29 60.33 61.02 59.41 60.24 60.37 57.69 55.78 48.79 47.53 45.82 46.14 47.44 48.78 51.48 51.84 51.51 52.33 53.03 52.83 53.05
62.78 61.66 60.48 59.95 60.03 61.54 62.66 62.63 61.32 62.30 60.04 55.50 55.36 55.14 57.13 57.88 56.91 56.20 55.91 55.06 55.73 56.97 57.03 57.70 58.54 57.53 56.79 59.61 59.98 57.58 51.39 50.20 45.70 44.49 44.18 45.46 46.97 49.45 49.61 49.83 50.80 51.40 51.99
60.67 61.03 59.31 58.87 58.51 59.71 64.12 64.27 63.10 62.24 59.16 56.19 55.22 59.64 58.96 57.77 55.46 55.40 55.68 56.29 57.03 56.67 55.93 56.46 56.84 57.21 57.44 55.92 58.80 58.83 59.01 51.97 49.62 43.46 42.08 43.10 45.57 45.86 47.26 48.01 48.88 49.50 50.34
61.28 61.69 61.09 59.85 59.60 61.67 65.26 65.25 64.32 63.46 62.06 61.75 61.58 60.07 58.78 57.31 57.01 57.21 57.49 57.45 57.49 57.17 56.30 55.93 55.84 55.38 55.67 55.39 55.35 56.84 56.37 56.88 56.44 51.00 45.05 40.22 41.98 45.25 46.40 46.38 47.07 47.17 48.41
62.68 63.18 62.66 62.50 63.35 64.78 64.87 65.06 64.55 63.68 62.58 61.73 61.38 60.14 59.66 59.34 58.53 58.25 58.27 58.87 58.33 57.84 57.17 56.60 56.09 55.46 55.01 54.47 54.01 54.23 53.83 52.90 52.37 52.44 49.81 44.14 42.89 42.71 43.80 44.50 44.40 45.72 46.42
MSLP
1007.55 1010.07 1011.32 1011.86 1012.44 1012.99 1013.31 1013.65 1014.03 1014.47 1014.75 1015.05 1015.31 1015.58 1015.75 1015.94 1016.01 1016.15 1016.25 1016.35 1016.34 1016.48 1016.59 1016.59 1016.62 1016.87 1016.85 1016.73 1016.93 1017.05 1017.05 1017.07 1016.96 1017.18 1017.30 1017.53 1017.71 1017.79 1017.89 1017.69 1017.36 1017.64 1018.44
1008.00 1009.93 1011.40 1011.92 1012.48 1013.08 1013.52 1013.86 1014.19 1014.59 1015.00 1015.31 1015.61 1015.85 1015.98 1016.10 1016.24 1016.42 1016.62 1016.68 1016.67 1016.68 1016.79 1016.89 1016.89 1016.99 1017.27 1017.22 1017.22 1017.40 1017.45 1017.42 1017.39 1017.20 1017.46 1017.69 1017.98 1018.15 1018.21 1017.91 1017.70 1018.39 1018.65
1008.24 1009.86 1011.42 1012.20 1012.74 1013.29 1013.79 1014.14 1014.38 1014.74 1015.17 1015.49 1015.85 1016.13 1016.26 1016.32 1016.45 1016.71 1016.87 1016.98 1016.91 1016.92 1017.11 1017.26 1017.24 1017.25 1017.49 1017.64 1017.61 1017.76 1017.80 1017.61 1017.49 1017.36 1017.14 1016.49 1017.59 1018.27 1018.48 1018.47 1018.56 1018.74 1018.91
1008.70 1010.26 1011.29 1012.62 1013.12 1013.56 1014.03 1014.37 1014.67 1014.94 1015.36 1015.67 1015.94 1016.30 1016.49 1016.62 1016.77 1016.94 1017.16 1017.25 1017.30 1017.28 1017.31 1017.46 1017.56 1017.63 1017.66 1017.95 1017.83 1017.94 1018.05 1017.84 1017.52 1017.56 1017.32 1016.70 1017.23 1018.39 1018.62 1018.80 1018.89 1018.95 1019.11
1009.23 1010.37 1011.37 1012.96 1013.50 1013.86 1014.17 1014.47 1014.77 1015.02 1015.30 1015.65 1016.01 1016.36 1016.66 1016.83 1017.04 1017.18 1017.35 1017.49 1017.45 1017.48 1017.53 1017.62 1017.91 1018.10 1018.03 1018.08 1018.33 1018.09 1018.12 1017.90 1017.34 1017.12 1016.22 1016.52 1017.00 1018.31 1018.59 1018.87 1019.09 1019.12 1019.20
1009.46 1010.34 1012.15 1013.10 1013.57 1013.93 1014.25 1014.60 1014.94 1015.23 1015.62 1015.92 1016.32 1016.60 1016.80 1016.95 1017.14 1017.36 1017.51 1017.51 1017.66 1017.69 1017.78 1017.89 1017.99 1018.33 1018.42 1018.41 1018.46 1018.40 1018.21 1017.92 1017.55 1016.17 1016.04 1016.96 1017.10 1018.33 1018.56 1018.79 1018.98 1019.31 1019.36
1009.65 1010.49 1012.03 1013.03 1013.49 1013.84 1014.28 1014.72 1015.15 1015.45 1015.79 1016.15 1016.40 1016.73 1017.01 1017.22 1017.34 1017.50 1017.58 1017.71 1017.64 1017.77 1017.91 1018.04 1018.16 1018.20 1018.41 1018.53 1018.53 1018.66 1018.32 1017.87 1017.53 1016.13 1015.97 1016.76 1017.74 1018.46 1018.71 1018.87 1018.99 1019.36 1019.62
1010.16 1010.57 1012.14 1013.18 1013.56 1013.88 1014.28 1014.72 1015.19 1015.55 1015.92 1016.25 1016.64 1016.93 1017.16 1017.43 1017.65 1017.79 1017.83 1017.83 1017.81 1017.98 1018.06 1018.22 1018.38 1018.36 1018.45 1018.42 1018.53 1018.45 1018.47 1018.23 1016.93 1015.82 1016.03 1016.49 1017.72 1018.48 1018.81 1018.98 1019.13 1019.34 1019.63
1010.50 1011.02 1012.19 1012.93 1013.61 1014.13 1014.49 1014.90 1015.30 1015.70 1015.90 1016.20 1016.50 1016.87 1017.24 1017.56 1017.83 1017.90 1018.03 1018.02 1018.01 1017.98 1018.26 1018.34 1018.44 1018.57 1018.57 1018.62 1018.53 1018.52 1018.46 1018.25 1017.71 1015.88 1016.04 1016.11 1017.68 1018.27 1018.73 1019.11 1019.27 1019.39 1019.54
1010.94 1011.32 1012.01 1012.70 1013.44 1013.92 1014.48 1015.10 1015.37 1015.69 1016.00 1016.27 1016.56 1016.83 1017.16 1017.57 1017.91 1018.05 1018.20 1018.36 1018.37 1018.31 1018.31 1018.40 1018.49 1018.55 1018.66 1018.73 1018.64 1018.63 1018.46 1018.24 1017.47 1016.14 1015.87 1016.70 1017.63 1018.28 1018.66 1019.07 1019.33 1019.53 1019.60
1010.82 1011.37 1011.83 1012.32 1013.01 1013.47 1013.84 1014.78 1015.54 1015.94 1016.26 1016.49 1016.62 1016.84 1017.13 1017.04 1017.32 1017.75 1017.80 1017.96 1018.48 1018.51 1018.54 1018.60 1018.53 1018.52 1018.56 1018.51 1018.41 1018.29 1018.43 1017.46 1016.77 1016.01 1016.80 1017.27 1017.47 1018.16 1018.55 1018.98 1019.30 1019.63 1019.74
1010.16 1010.98 1011.74 1012.28 1012.63 1013.00 1012.98 1014.21 1014.99 1015.53 1015.89 1016.10 1016.28 1016.60 1016.79 1016.48 1016.58 1016.79 1017.22 1017.79 1018.17 1018.42 1018.48 1018.49 1018.47 1018.46 1018.44 1017.45 1017.89 1018.30 1017.66 1016.79 1016.59 1016.28 1017.02 1017.21 1017.58 1018.10 1018.67 1019.03 1019.29 1019.61 1019.87
1009.30 1010.38 1011.21 1012.09 1012.43 1012.74 1012.46 1013.48 1014.09 1014.33 1014.88 1015.27 1015.55 1015.91 1016.23 1016.30 1016.65 1016.80 1017.27 1017.39 1017.68 1018.20 1017.80 1018.13 1018.06 1017.97 1017.17 1017.04 1017.07 1017.54 1017.34 1017.15 1016.77 1016.86 1017.70 1017.33 1017.58 1017.99 1018.98 1019.34 1019.73 1020.01 1020.23
1008.44 1009.64 1010.90 1011.93 1012.49 1012.75 1012.52 1013.17 1013.35 1013.59 1014.16 1014.72 1015.37 1015.90 1016.30 1016.64 1016.58 1016.31 1016.81 1017.22 1017.49 1017.53 1017.48 1017.28 1017.48 1017.27 1017.45 1017.23 1016.91 1017.42 1017.61 1017.71 1017.60 1017.69 1018.16 1018.00 1018.05 1018.46 1018.79 1019.18 1019.76 1020.37 1020.63
1007.84 1009.15 1010.47 1011.64 1012.35 1012.76 1012.81 1013.10 1013.23 1013.55 1014.24 1015.01 1015.88 1016.16 1016.43 1016.40 1016.63 1016.59 1017.04 1017.07 1017.08 1016.88 1016.27 1016.16 1016.32 1016.91 1016.87 1017.04 1016.99 1017.45 1018.25 1018.13 1018.49 1018.38 1018.86 1018.72 1018.56 1018.96 1019.24 1019.58 1020.11 1020.68 1021.13
1007.61 1008.69 1010.15 1011.74 1012.40 1012.72 1013.09 1013.52 1014.01 1014.19 1014.57 1015.93 1016.63 1017.27 1017.11 1017.31 1017.70 1018.10 1018.19 1017.67 1015.67 1016.68 1016.50 1016.72 1017.01 1016.97 1017.06 1017.62 1018.04 1018.56 1019.02 1019.15 1019.33 1019.49 1019.78 1019.79 1019.58 1020.06 1020.00 1020.35 1020.66 1021.13 1021.57
1007.77 1008.31 1009.77 1011.30 1012.51 1012.85 1013.45 1013.94 1014.07 1014.60 1015.50 1016.70 1017.55 1018.08 1018.49 1018.44 1018.49 1018.36 1017.91 1017.38 1018.34 1018.15 1017.56 1017.58 1017.59 1017.50 1017.49 1017.96 1019.16 1019.71 1020.15 1020.28 1020.33 1020.61 1020.81 1020.63 1020.83 1021.08 1021.19 1021.41 1021.64 1021.82 1022.07
1007.52 1008.41 1010.02 1011.31 1012.51 1013.42 1014.16 1014.38 1014.63 1015.89 1016.63 1017.20 1017.46 1017.41 1018.57 1018.52 1018.11 1018.66 1018.57 1018.79 1018.49 1018.23 1017.97 1017.79 1017.47 1017.46 1018.21 1018.77 1019.91 1020.67 1020.72 1021.06 1021.19 1021.37 1021.43 1021.56 1021.69 1021.96 1022.04 1022.25 1022.33 1022.49 1022.58
1007.73 1008.42 1010.51 1011.70 1012.90 1013.94 1014.55 1015.82 1016.43 1016.97 1017.35 1017.85 1017.97 1017.81 1017.59 1018.15 1017.93 1017.59 1018.08 1018.72 1018.89 1019.13 1018.63 1018.37 1017.92 1017.98 1018.32 1019.50 1020.49 1021.43 1021.78 1021.88 1021.76 1021.99 1021.97 1022.09 1022.17 1022.45 1022.74 1022.95 1023.11 1023.18 1023.14
1008.04 1008.78 1011.20 1012.38 1013.55 1014.54 1015.53 1016.42 1016.90 1017.29 1017.67 1017.88 1018.10 1018.67 1017.65 1018.14 1018.48 1018.09 1018.68 1019.39 1020.19 1019.18 1018.45 1018.68 1018.51 1018.65 1018.40 1019.64 1020.97 1022.05 1022.44 1022.75 1022.73 1022.55 1022.52 1022.22 1022.45 1022.50 1022.74 1022.83 1023.19 1023.86 1023.86
1009.94 1010.77 1012.02 1013.23 1014.32 1014.91 1015.74 1016.29 1016.99 1017.36 1017.71 1017.83 1017.90 1018.65 1017.76 1018.26 1018.52 1018.38 1018.27 1018.99 1018.93 1018.68 1018.84 1019.07 1019.00 1019.10 1019.28 1020.15 1021.43 1022.81 1022.97 1023.38 1023.49 1023.65 1023.13 1022.74 1022.18 1022.43 1022.71 1022.85 1023.27 1023.82 1024.29
1011.79 1012.36 1013.07 1013.83 1014.59 1015.07 1015.46 1016.08 1016.57 1017.26 1017.68 1017.85 1018.27 1018.25 1017.81 1018.46 1018.57 1018.51 1018.57 1018.89 1018.94 1018.82 1019.24 1019.61 1019.42 1019.32 1019.31 1019.56 1019.78 1021.23 1022.45 1023.50 1023.96 1024.14 1023.99 1023.48 1023.05 1023.08 1023.43 1023.37 1023.45 1023.62 1023.77
1012.62 1013.19 1013.75 1014.34 1014.94 1015.28 1015.38 1015.82 1016.29 1016.68 1017.41 1018.15 1018.59 1018.42 1018.23 1018.51 1018.94 1019.37 1019.52 1019.62 1019.73 1019.34 1019.06 1019.65 1019.82 1019.61 1019.51 1019.58 1019.58 1019.89 1020.76 1021.52 1023.02 1024.02 1024.23 1024.12 1023.95 1023.48 1023.68 1024.03 1023.79 1023.86 1024.13
1013.47 1013.89 1014.42 1014.66 1014.95 1015.22 1015.18 1015.18 1015.35 1015.53 1016.37 1017.43 1018.13 1018.04 1018.39 1018.84 1019.45 1019.66 1019.85 1019.99 1019.98 1019.75 1019.58 1019.63 1019.48 1019.35 1019.37 1019.43 1019.15 1019.23 1019.41 1020.37 1021.39 1023.22 1024.21 1024.13 1024.07 1024.05 1024.00 1024.18 1024.28 1024.19 1024.35
1013.29 1013.58 1014.23 1014.72 1015.07 1015.11 1014.86 1014.70 1015.11 1015.43 1016.11 1016.71 1016.95 1017.62 1018.26 1018.87 1019.03 1019.27 1019.58 1019.58 1019.47 1019.27 1019.47 1019.48 1019.54 1019.71 1019.62 1019.52 1018.99 1018.86 1019.14 1019.51 1020.02 1020.80 1022.38 1023.90 1024.14 1024.09 1024.08 1024.36 1024.48 1024.67 1024.51
1012.97 1013.26 1013.79 1014.19 1014.29 1014.31 1014.36 1014.54 1014.47 1014.93 1015.03 1015.60 1016.33 1017.12 1017.71 1018.28 1018.65 1018.78 1018.91 1019.04 1019.04 1019.11 1019.30 1019.43 1019.56 1019.79 1019.93 1019.73 1019.43 1019.12 1018.90 1019.09 1019.46 1019.94 1020.71 1022.24 1022.94 1023.80 1024.29 1024.49 1024.71 1024.62 1024.87
Wind_Speed
14 20 15 14 12 10 9 10 12 12 13 13 12 11 11 11 10 10 9 9 10 10 10 11 12 11 12 14 13 13 12 11 12 11 12 12 11 10 8 3 7 15 11
16 20 14 14 13 12 11 11 14 14 14 13 13 11 11 11 10 10 9 8 9 11 10 10 12 12 12 12 12 11 10 9 8 11 13 13 11 9 10 15 15 12 12
16 19 17 14 13 12 12 11 14 15 14 14 13 11 11 11 11 9 8 7 8 10 10 10 11 12 12 11 10 9 8 6 5 8 14 12 12 8 10 13 12 11 11
15 16 17 12 12 12 11 11 12 15 15 14 13 11 11 10 10 9 7 7 8 10 10 10 10 10 11 8 8 8 6 3 6 7 8 4 12 10 9 9 9 10 10
14 15 15 12 11 12 11 11 11 14 14 14 13 12 11 10 10 9 7 7 8 9 10 10 9 8 8 8 5 6 3 4 11 10 9 7 10 11 10 9 9 8 4
13 14 19 13 12 11 11 11 11 12 12 12 11 11 11 10 10 9 7 7 8 9 9 9 10 7 6 6 5 3 2 7 11 11 7 5 5 13 10 7 12 9 9
12 16 16 13 12 12 12 11 10 11 12 11 11 10 10 9 9 8 7 6 8 8 8 8 8 7 6 5 3 1 3 8 11 10 6 9 12 13 10 9 10 9 8
10 12 14 13 12 12 11 11 11 11 11 11 10 9 9 8 7 7 6 6 8 7 8 7 6 6 5 5 3 2 5 9 11 2 2 6 16 13 11 10 10 10 9
10 9 13 15 13 9 9 9 10 10 11 11 11 10 8 8 7 6 5 5 6 9 7 7 6 6 6 5 4 4 5 8 10 8 5 7 15 13 12 11 10 11 10
10 10 12 13 13 13 11 8 9 10 10 10 10 9 8 7 6 6 5 5 5 6 7 6 6 6 5 5 6 5 6 10 11 12 7 8 14 11 12 12 11 10 10
10 11 12 13 13 13 13 11 9 9 8 8 9 8 8 8 10 11 9 12 7 5 6 5 6 7 7 9 10 9 7 8 8 7 6 11 13 11 11 11 9 8 8
14 13 11 11 12 12 11 13 12 11 10 9 10 11 9 10 6 7 10 10 9 7 6 7 8 9 9 10 7 9 7 9 2 5 4 10 10 11 11 13 11 10 9
14 12 13 12 11 11 9 9 7 8 8 8 10 10 9 3 3 6 6 6 7 9 8 9 9 9 10 6 7 4 7 6 4 6 6 4 11 14 17 17 16 14 15
13 15 12 12 10 10 7 7 8 6 7 4 4 5 3 2 5 6 3 4 4 5 7 8 6 8 7 6 3 3 4 2 2 3 6 8 13 17 19 20 19 17 14
10 13 14 11 10 9 7 6 5 5 5 6 5 5 5 5 5 4 3 4 6 7 5 4 3 3 3 6 4 5 5 6 9 6 5 9 11 10 17 22 20 19 17
8 14 13 13 10 10 9 7 4 5 6 6 7 9 8 6 7 7 7 6 4 4 4 5 6 3 2 3 6 7 9 9 9 10 8 11 17 10 15 19 19 18 17
6 8 16 14 11 10 8 8 7 7 9 9 8 10 9 10 9 8 9 13 7 5 3 3 3 5 1 3 10 9 8 9 9 9 7 8 12 19 17 17 18 17 16
6 10 13 12 13 7 7 7 6 9 8 7 7 7 6 4 8 3 2 4 6 4 4 3 3 2 4 7 7 7 6 7 8 7 7 7 8 8 15 17 16 15 15
8 12 15 13 12 9 8 9 9 10 8 7 6 5 8 6 7 9 4 3 5 4 3 3 1 2 2 6 7 7 6 6 7 6 8 8 9 8 7 16 18 14 11
6 15 14 10 9 11 9 8 7 7 5 5 5 3 9 7 5 7 4 4 5 3 1 2 3 3 2 6 8 6 6 6 5 5 4 6 5 9 8 10 8 8 11
12 13 11 11 10 9 7 6 6 5 6 6 6 7 8 5 5 5 5 6 4 2 3 3 2 2 3 9 7 3 5 6 6 5 3 3 5 5 5 6 6 6 6
10 10 11 10 9 7 7 5 5 7 4 6 5 3 6 5 5 3 3 2 1 3 2 2 5 3 5 7 5 5 2 2 3 4 2 1 4 5 5 3 4 3 6
8 8 9 9 9 6 9 7 7 7 6 3 1 3 5 5 2 1 3 3 3 0 3 2 2 4 6 7 9 6 3 5 3 2 1 1 1 3 4 3 4 4 6
7 7 9 10 9 4 9 12 14 8 7 3 4 5 5 4 4 4 3 3 4 3 4 5 5 4 6 9 5 8 8 5 3 3 1 2 3 4 4 4 3 4 4
8 9 10 10 10 10 11 10 8 5 5 7 6 8 6 7 7 6 6 6 5 3 3 2 3 4 6 6 7 4 6 5 5 2 4 4 3 4 4 4 4 4 4
9 10 12 13 13 12 10 8 7 8 7 6 7 7 7 6 6 7 6 4 3 1 1 2 3 4 6 6 6 7 6 5 5 4 2 5 7 7 5 5 5 5 4
Wind_Direction
123 134 142 142 139 141 136 136 132 133 139 143 142 141 136 128 118 111 106 105 106 107 108 106 105 101 99 98 94 89 89 89 97 96 98 97 96 94 58 29 150 93 99
133 147 150 145 139 142 142 138 138 139 142 144 143 142 135 128 122 115 111 116 116 114 114 113 111 109 105 104 100 95 94 92 107 124 123 107 98 90 62 57 69 96 90
147 151 160 140 138 139 143 142 144 143 145 145 142 141 137 133 126 122 124 123 120 117 116 114 112 112 113 110 102 100 103 118 168 167 181 122 108 97 78 77 92 100 99
140 148 160 139 133 133 138 140 146 146 146 144 141 143 139 135 130 129 129 126 123 122 120 118 117 118 117 109 107 109 112 175 233 216 222 197 117 118 103 101 106 111 113
144 150 139 133 127 132 139 145 151 148 146 144 143 145 142 139 139 140 137 135 131 127 126 125 121 119 113 110 105 110 126 245 260 252 184 78 127 126 125 128 134 114 120
145 159 126 134 137 141 147 149 150 145 140 139 142 145 146 147 149 149 148 147 143 138 134 129 126 124 118 119 120 126 181 261 286 264 88 121 103 135 145 141 98 96 100
150 120 141 139 149 150 151 152 147 141 137 142 144 145 148 151 154 156 158 157 148 142 138 136 138 139 138 132 129 289 277 281 275 265 166 153 116 141 153 139 127 124 123
152 142 143 147 153 153 155 153 150 143 146 148 147 150 155 157 159 161 166 167 149 144 140 147 152 154 156 155 175 208 287 300 293 269 198 91 136 150 161 154 150 149 145
156 157 153 170 168 152 154 152 147 154 158 158 158 161 162 165 170 174 183 177 175 164 159 160 165 172 174 179 194 224 264 287 289 276 282 136 138 154 166 168 167 164 160
162 162 164 171 171 171 170 147 154 166 167 164 165 167 164 163 180 190 183 189 173 165 171 175 178 187 197 206 213 231 255 274 261 270 207 118 143 159 171 172 179 167 165
172 170 170 170 174 177 173 163 164 171 165 163 169 172 162 202 183 175 198 151 179 194 193 205 206 208 212 220 215 213 238 254 241 269 75 117 136 168 166 166 163 169 174
181 174 173 174 174 178 181 152 186 178 187 192 191 178 211 222 196 192 157 159 174 192 218 222 222 233 234 247 191 220 236 252 248 296 91 128 139 167 144 124 118 114 108
189 181 176 178 175 187 187 160 189 179 193 193 203 197 205 219 213 235 173 186 193 201 212 205 214 230 246 292 172 252 280 316 304 306 40 115 143 142 130 119 114 108 99
181 183 177 177 175 194 178 186 189 190 194 169 203 198 201 201 219 237 181 215 202 215 233 215 220 228 226 266 283 241 286 325 317 27 61 21 121 138 136 126 116 106 105
186 180 169 174 180 190 198 188 212 200 161 192 154 181 207 217 242 259 243 219 229 205 237 273 266 17 278 296 342 25 38 46 44 54 51 14 88 126 133 116 112 105 95
188 165 171 171 198 190 199 164 167 217 101 75 58 24 13 13 7 346 325 318 322 3 15 304 4 298 136 22 59 60 59 61 59 63 63 53 62 68 90 101 104 105 101
206 184 176 169 184 183 194 183 191 100 78 80 67 56 45 51 43 61 36 350 345 338 325 266 227 254 75 87 78 64 55 56 68 71 63 72 66 61 73 85 92 96 96
223 174 143 151 172 177 162 191 85 97 95 105 112 110 68 70 104 73 120 334 347 317 329 262 257 240 91 51 70 54 61 74 65 56 76 75 76 68 63 66 78 89 95
256 151 146 152 160 172 120 85 92 95 106 111 113 137 142 168 142 119 127 42 328 275 313 326 38 345 151 100 83 63 52 63 74 89 79 94 105 100 87 78 67 56 84
212 118 134 133 128 97 93 98 92 104 110 132 133 116 142 142 143 116 104 87 260 302 182 276 336 270 180 125 88 72 54 41 56 60 72 102 136 136 143 128 113 75 63
67 110 123 108 117 119 121 122 118 124 149 148 149 166 133 136 149 135 156 164 211 137 42 311 236 250 215 115 110 83 61 46 45 26 43 5 122 108 124 128 132 130 103
81 91 104 113 123 128 134 135 129 136 148 134 158 132 86 151 179 160 162 147 187 123 168 260 273 260 269 170 218 152 165 146 63 32 13 52 120 120 126 139 106 120 135
97 109 118 114 119 130 138 126 118 128 133 144 175 128 146 183 144 65 59 64 23 127 134 207 284 264 262 239 217 245 165 220 137 134 71 99 138 140 128 144 138 137 115
97 112 124 129 133 160 177 156 167 174 162 133 166 157 160 144 155 149 150 197 216 192 181 194 215 240 230 257 211 240 277 120 180 186 201 194 209 177 172 163 142 140 132
137 141 145 148 156 170 179 164 176 160 170 159 172 148 167 174 187 194 203 199 196 201 168 243 207 237 253 252 267 217 237 263 260 111 177 183 225 230 174 179 174 172 161
130 135 139 151 161 170 171 185 168 172 149 154 157 173 178 178 183 192 192 195 176 139 199 205 222 249 260 271 280 284 266 238 226 227 209 159 183 186 190 188 189 179 157